Pagina principale
METAR-TAF:

METAR-TAF

Aeroporti :

Danbury Municipal Airport

Danbury, Connecticut, Stati Uniti

latitudine: 41-22-18N, longitudine: 073-29-04W, altezza: 139 m

Osservazione

Il bollettino è stato emesso 17 minuti fa, alle 17:53 UTC
Vento 9 kt da ovest/nord-ovest con raffiche fino a 16 kt, variando fra ovest e nord
Temperature 8°C
Umidità 34%
Pressione 1026 hPa
Visibilità: 16.1 km
Cielo sereno

METAR: KDXR 181753Z 30009G16KT 270V350 10SM CLR 08/M07 A3029 RMK AO2 SLP258 T00831072 10083 20033 58007

Ora: 14:10 (18:10 UTC)


TAF: mancante

Osservazioni e previsioni meteorologiche di più di 4000 aeroporti (messaggi METAR e TAF).

Le stazioni disponibili sono rappresentate dai dischi gialli e rossi sulla carta.

Puntare il mouse per vedere il nome della stazione.

Clicca sopra per visualizzare le osservazioni e previsioni meteorologiche.

Per cambiare la mappa : fare clic sui pulsanti verdi con una croce nera per ingrandire, il pulsante verde con un trattino per diminuire, o sulla freccia verde per le mappe adiacenti.


METAR-TAF: